sat.trackr.live / text

‹ back to catalog

HULIANWANG DIGUI-123

NORAD 67063 · 2025-295E

PAYLOAD ACTIVE UNKNOWN

§ Identity

Operator
Country
PRC
Launch date
2025-12-11
Launch site
WSC
Launch vehicle
Mass (kg)
RCS (m²)

External: N2YO · Heavens-Above · Gunter

§ Orbital elements

Epoch: 2026-05-25T04:38:31.989120Z

Period
108.33 min
Inclination
50.0026°
Eccentricity
0.0000828
Mean motion
13.29328251 rev/d
Perigee alt
1,148.7 km
Apogee alt
1,149.9 km
Semi-major
7,527.4 km
B*
8.9651e-5
RAAN
107.9597°
Arg perigee
353.2224°
Mean anomaly
6.8637°
Rev number
2,244

§ Raw data

HULIANWANG DIGUI-1231 67063U 25295E   26145.19342580 -.00000082  00000+0  89651-4 0  99982 67063  50.0026 107.9597 0000828 353.2224   6.8637 13.29328251 22442

JSON: /api/v1/satellites/67063 · /tle

For live sub-satellite position, see the globe view (requires WebGL).

§ Visibility from observer

Set your observer location to see the next 7 days of passes ≥ 10°. The values pass through the URL so the page stays shareable.

No JS? Fill the form by hand. The geolocation button needs JavaScript.